Location: Newark
(48.2308°N, 120.8549°W)
Time: 07:43:00
(UTC+00:00)

Tiangong - Pass Details

Date: 28 June 2021
Orbit: 373 x 386 km, 41.5° (Epoch: 03 August)

Event Time Altitude Azimuth Distance (km) Brightness Sun altitude
Exits shadow 10:23:32 22° 197° (SSW) 882 2.3 -12.2°
Maximum altitude 10:23:55 23° 185° (S) 866 2.3 -12.2°
Drops below altitude 10° 10:26:27 10° 131° (SE) 1,388 3.8 -12.0°
Sets 10:28:46 0° 116° (ESE) 2,242 5.0 -11.8°
